User: anonymous   Login
Location: Unspecified
(0.0000°N, 0.0000°E)
Time: 08:30:01
(UTC+00:00)
Language:

PW SAT - Orbit

View from above orbital plane
View from above orbital plane
View from above satellite
View from above satellite

Ground track
Ground track

The orbit data is extracted from the following two-line orbital elements,

1 38083U 12006G   14299.14819029  .04819187  43232-5  35200-2 0  7504
2 38083 069.4096 325.8291 0048776 143.6268 216.8277 16.12580268144236
Epoch (UTC): 26 October 2014 03:33:23
Eccentricity: 0.0048776
inclination: 69.4096°
perigee height: 207 km
apogee height: 272 km
right ascension of ascending node: 325.8291°
argument of perigee: 143.6268°
revolutions per day: 16.12580268
mean anomaly at epoch: 216.8277°
orbit number at epoch: 14423

The dashed part of the orbit path shows where the satellite is in the earth's shadow,  

DLR